Year,Month,Day,Hour,Minute,Value (Times are PST for temperature in C)
2009,05,28,00,00,10.90
2009,05,28,00,01,11.10
2009,05,28,00,02,11.10
2009,05,28,00,03,11.10
2009,05,28,00,04,11.10
2009,05,28,00,05,11.10
2009,05,28,00,06,11.20
2009,05,28,00,07,11.20
2009,05,28,00,08,11.30
2009,05,28,00,09,11.30
2009,05,28,00,10,11.40
2009,05,28,00,11,11.40
2009,05,28,00,12,11.40
2009,05,28,00,13,11.40
2009,05,28,00,14,11.40
2009,05,28,00,15,11.40
2009,05,28,00,16,11.40
2009,05,28,00,17,11.40
2009,05,28,00,18,11.40
2009,05,28,00,19,11.40
2009,05,28,00,20,11.40
2009,05,28,00,21,11.40
2009,05,28,00,22,11.40
2009,05,28,00,23,11.40
2009,05,28,00,24,11.40
2009,05,28,00,25,11.30
2009,05,28,00,26,11.30
2009,05,28,00,27,11.30
2009,05,28,00,28,11.20
2009,05,28,00,29,11.20
2009,05,28,00,30,11.10
2009,05,28,00,31,11.10
2009,05,28,00,32,11.10
2009,05,28,00,33,11.10
2009,05,28,00,34,11.10
2009,05,28,00,35,11.10
2009,05,28,00,36,11.00
2009,05,28,00,37,10.90
2009,05,28,00,38,11.00
2009,05,28,00,39,11.10
2009,05,28,00,40,11.10
2009,05,28,00,41,11.10
2009,05,28,00,42,11.10
2009,05,28,00,43,11.10
2009,05,28,00,44,11.10
2009,05,28,00,45,11.10
2009,05,28,00,46,11.10
2009,05,28,00,47,11.10
2009,05,28,00,48,11.20
2009,05,28,00,49,11.20
2009,05,28,00,50,11.20
2009,05,28,00,51,11.20
2009,05,28,00,52,11.20
2009,05,28,00,53,11.20
2009,05,28,00,54,11.20
2009,05,28,00,55,11.10
2009,05,28,00,56,11.10
2009,05,28,00,57,11.10
2009,05,28,00,58,11.10
2009,05,28,00,59,11.10
2009,05,28,01,00,11.10
2009,05,28,01,01,11.10
2009,05,28,01,02,11.10
2009,05,28,01,03,11.10
2009,05,28,01,04,11.10
2009,05,28,01,05,11.10
2009,05,28,01,06,10.90
2009,05,28,01,07,10.90
2009,05,28,01,08,10.90
2009,05,28,01,09,10.90
2009,05,28,01,10,10.90
2009,05,28,01,11,10.90
2009,05,28,01,12,10.90
2009,05,28,01,13,10.90
2009,05,28,01,14,10.90
2009,05,28,01,15,10.90
2009,05,28,01,16,10.90
2009,05,28,01,17,10.90
2009,05,28,01,18,10.90
2009,05,28,01,19,10.90
2009,05,28,01,20,10.90
2009,05,28,01,21,10.90
2009,05,28,01,22,10.90
2009,05,28,01,23,10.90
2009,05,28,01,24,10.80
2009,05,28,01,25,10.80
2009,05,28,01,26,10.80
2009,05,28,01,27,10.80
2009,05,28,01,28,10.80
2009,05,28,01,29,10.80
2009,05,28,01,30,10.70
2009,05,28,01,31,10.70
2009,05,28,01,32,10.70
2009,05,28,01,33,10.70
2009,05,28,01,34,10.70
2009,05,28,01,35,10.70
2009,05,28,01,36,10.70
2009,05,28,01,37,10.70
2009,05,28,01,38,10.70
2009,05,28,01,39,10.70
2009,05,28,01,40,10.70
2009,05,28,01,41,10.60
2009,05,28,01,42,10.60
2009,05,28,01,43,10.60
2009,05,28,01,44,10.60
2009,05,28,01,45,10.60
2009,05,28,01,46,10.60
2009,05,28,01,47,10.60
2009,05,28,01,48,10.60
2009,05,28,01,49,10.60
2009,05,28,01,50,10.50
2009,05,28,01,51,10.40
2009,05,28,01,52,10.40
2009,05,28,01,53,10.40
2009,05,28,01,54,10.40
2009,05,28,01,55,10.40
2009,05,28,01,56,10.40
2009,05,28,01,57,10.30
2009,05,28,01,58,10.30
2009,05,28,01,59,10.30
2009,05,28,02,00,10.30
2009,05,28,02,01,10.30
2009,05,28,02,02,10.30
2009,05,28,02,03,10.20
2009,05,28,02,04,10.20
2009,05,28,02,05,10.20
2009,05,28,02,06,10.20
2009,05,28,02,07,10.20
2009,05,28,02,08,10.30
2009,05,28,02,09,10.30
2009,05,28,02,10,10.30
2009,05,28,02,11,10.30
2009,05,28,02,12,10.30
2009,05,28,02,13,10.30
2009,05,28,02,14,10.30
2009,05,28,02,15,10.30
2009,05,28,02,16,10.30
2009,05,28,02,17,10.30
2009,05,28,02,18,10.30
2009,05,28,02,19,10.30
2009,05,28,02,20,10.30
2009,05,28,02,21,10.30
2009,05,28,02,22,10.30
2009,05,28,02,23,10.30
2009,05,28,02,24,10.30
2009,05,28,02,25,10.20
2009,05,28,02,26,10.20
2009,05,28,02,27,10.20
2009,05,28,02,28,10.20
2009,05,28,02,29,10.20
2009,05,28,02,30,10.10
2009,05,28,02,31,10.10
2009,05,28,02,32,10.10
2009,05,28,02,33,10.10
2009,05,28,02,34,10.00
2009,05,28,02,35,9.90
2009,05,28,02,36,9.90
2009,05,28,02,37,9.90
2009,05,28,02,38,9.90
2009,05,28,02,39,9.90
2009,05,28,02,40,9.90
2009,05,28,02,41,9.90
2009,05,28,02,42,9.90
2009,05,28,02,43,9.90
2009,05,28,02,44,9.90
2009,05,28,02,45,9.90
2009,05,28,02,46,9.90
2009,05,28,02,47,9.90
2009,05,28,02,48,9.90
2009,05,28,02,49,9.90
2009,05,28,02,50,9.90
2009,05,28,02,51,9.90
2009,05,28,02,52,9.90
2009,05,28,02,53,9.90
2009,05,28,02,54,9.90
2009,05,28,02,55,9.90
2009,05,28,02,56,9.90
2009,05,28,02,57,9.90
2009,05,28,02,58,9.90
2009,05,28,02,59,9.90
2009,05,28,03,00,9.80
2009,05,28,03,01,9.80
2009,05,28,03,02,9.80
2009,05,28,03,03,9.80
2009,05,28,03,04,9.80
2009,05,28,03,05,9.80
2009,05,28,03,06,9.80
2009,05,28,03,07,9.80
2009,05,28,03,08,9.80
2009,05,28,03,09,9.80
2009,05,28,03,10,9.80
2009,05,28,03,11,9.80
2009,05,28,03,12,9.80
2009,05,28,03,13,9.80
2009,05,28,03,14,9.80
2009,05,28,03,15,9.90
2009,05,28,03,16,9.90
2009,05,28,03,17,9.90
2009,05,28,03,18,9.90
2009,05,28,03,19,9.90
2009,05,28,03,20,9.90
2009,05,28,03,21,9.90
2009,05,28,03,22,9.90
2009,05,28,03,23,9.90
2009,05,28,03,24,9.90
2009,05,28,03,25,9.90
2009,05,28,03,26,9.90
2009,05,28,03,27,9.90
2009,05,28,03,28,9.90
2009,05,28,03,29,9.90
2009,05,28,03,30,9.90
2009,05,28,03,31,9.90
2009,05,28,03,32,9.90
2009,05,28,03,33,9.90
2009,05,28,03,34,9.90
2009,05,28,03,35,9.90
2009,05,28,03,36,9.90
2009,05,28,03,37,9.90
2009,05,28,03,38,9.90
2009,05,28,03,39,9.90
2009,05,28,03,40,9.80
2009,05,28,03,41,9.80
2009,05,28,03,42,9.70
2009,05,28,03,43,9.70
2009,05,28,03,44,9.70
2009,05,28,03,45,9.70
2009,05,28,03,46,9.70
2009,05,28,03,47,9.70
2009,05,28,03,48,9.60
2009,05,28,03,49,9.60
2009,05,28,03,50,9.60
2009,05,28,03,51,9.60
2009,05,28,03,52,9.50
2009,05,28,03,53,9.50
2009,05,28,03,54,9.50
2009,05,28,03,55,9.40
2009,05,28,03,56,9.40
2009,05,28,03,57,9.40
2009,05,28,03,58,9.40
2009,05,28,03,59,9.30
2009,05,28,04,00,9.30
2009,05,28,04,01,9.30
2009,05,28,04,02,9.30
2009,05,28,04,03,9.30
2009,05,28,04,04,9.30
2009,05,28,04,05,9.30
2009,05,28,04,06,9.30
2009,05,28,04,07,9.30
2009,05,28,04,08,9.30
2009,05,28,04,09,9.30
2009,05,28,04,10,9.30
2009,05,28,04,11,9.30
2009,05,28,04,12,9.30
2009,05,28,04,13,9.40
2009,05,28,04,14,9.40
2009,05,28,04,15,9.40
2009,05,28,04,16,9.40
2009,05,28,04,17,9.40
2009,05,28,04,18,9.40
2009,05,28,04,19,9.40
2009,05,28,04,20,9.40
2009,05,28,04,21,9.40
2009,05,28,04,22,9.30
2009,05,28,04,23,9.30
2009,05,28,04,24,9.30
2009,05,28,04,25,9.30
2009,05,28,04,26,9.20
2009,05,28,04,27,9.20
2009,05,28,04,28,9.20
2009,05,28,04,29,9.20
2009,05,28,04,30,9.20
2009,05,28,04,31,9.20
2009,05,28,04,32,9.20
2009,05,28,04,33,9.20
2009,05,28,04,34,9.20
2009,05,28,04,35,9.20
2009,05,28,04,36,9.20
2009,05,28,04,37,9.20
2009,05,28,04,38,9.20
2009,05,28,04,39,9.30
2009,05,28,04,40,9.30
2009,05,28,04,41,9.30
2009,05,28,04,42,9.30
2009,05,28,04,43,9.30
2009,05,28,04,44,9.30
2009,05,28,04,45,9.30
2009,05,28,04,46,9.30
2009,05,28,04,47,9.30
2009,05,28,04,48,9.20
2009,05,28,04,49,9.20
2009,05,28,04,50,9.20
2009,05,28,04,51,9.20
2009,05,28,04,52,9.20
2009,05,28,04,53,9.20
2009,05,28,04,54,9.20
2009,05,28,04,55,9.20
2009,05,28,04,56,9.20
2009,05,28,04,57,9.20
2009,05,28,04,58,9.20
2009,05,28,04,59,9.20
2009,05,28,05,00,9.10
2009,05,28,05,01,9.10
2009,05,28,05,02,9.10
2009,05,28,05,03,9.10
2009,05,28,05,04,9.10
2009,05,28,05,05,9.10
2009,05,28,05,06,9.10
2009,05,28,05,07,9.00
2009,05,28,05,08,9.00
2009,05,28,05,09,9.00
2009,05,28,05,10,9.00
2009,05,28,05,11,9.00
2009,05,28,05,12,8.90
2009,05,28,05,13,8.90
2009,05,28,05,14,8.90
2009,05,28,05,15,8.90
2009,05,28,05,16,8.90
2009,05,28,05,17,8.90
2009,05,28,05,18,8.80
2009,05,28,05,19,8.80
2009,05,28,05,20,8.80
2009,05,28,05,21,8.80
2009,05,28,05,22,8.80
2009,05,28,05,23,8.90
2009,05,28,05,24,8.90
2009,05,28,05,25,8.90
2009,05,28,05,26,8.90
2009,05,28,05,27,8.90
2009,05,28,05,28,8.90
2009,05,28,05,29,8.90
2009,05,28,05,30,8.80
2009,05,28,05,31,8.80
2009,05,28,05,32,8.80
2009,05,28,05,33,8.80
2009,05,28,05,34,8.80
2009,05,28,05,35,8.70
2009,05,28,05,36,8.70
2009,05,28,05,37,8.70
2009,05,28,05,38,8.70
2009,05,28,05,39,8.70
2009,05,28,05,40,8.70
2009,05,28,05,41,8.70
2009,05,28,05,42,8.70
2009,05,28,05,43,8.70
2009,05,28,05,44,8.70
2009,05,28,05,45,8.70
2009,05,28,05,46,8.70
2009,05,28,05,47,8.70
2009,05,28,05,48,8.60
2009,05,28,05,49,8.60
2009,05,28,05,50,8.70
2009,05,28,05,51,8.70
2009,05,28,05,52,8.70
2009,05,28,05,53,8.70
2009,05,28,05,54,8.70
2009,05,28,05,55,8.70
2009,05,28,05,56,8.70
2009,05,28,05,57,8.70
2009,05,28,05,58,8.70
2009,05,28,05,59,8.70
2009,05,28,06,00,8.70
2009,05,28,06,01,8.70
2009,05,28,06,02,8.70
2009,05,28,06,03,8.70
2009,05,28,06,04,8.70
2009,05,28,06,05,8.70
2009,05,28,06,06,8.70
2009,05,28,06,07,8.70
2009,05,28,06,08,8.70
2009,05,28,06,09,8.70
2009,05,28,06,10,8.70
2009,05,28,06,11,8.70
2009,05,28,06,12,8.70
2009,05,28,06,13,8.70
2009,05,28,06,14,8.70
2009,05,28,06,15,8.70
2009,05,28,06,16,8.70
2009,05,28,06,17,8.70
2009,05,28,06,18,8.70
2009,05,28,06,19,8.70
2009,05,28,06,20,8.70
2009,05,28,06,21,8.70
2009,05,28,06,22,8.70
2009,05,28,06,23,8.70
2009,05,28,06,24,8.70
2009,05,28,06,25,8.80
2009,05,28,06,26,8.80
2009,05,28,06,27,8.80
2009,05,28,06,28,8.80
2009,05,28,06,29,8.80
2009,05,28,06,30,8.90
2009,05,28,06,31,8.90
2009,05,28,06,32,8.90
2009,05,28,06,33,9.00
2009,05,28,06,34,9.00
2009,05,28,06,35,9.00
2009,05,28,06,36,9.10
2009,05,28,06,37,9.10
2009,05,28,06,38,9.10
2009,05,28,06,39,9.20
2009,05,28,06,40,9.20
2009,05,28,06,41,9.20
2009,05,28,06,42,9.20
2009,05,28,06,43,9.20
2009,05,28,06,44,9.20
2009,05,28,06,45,9.20
2009,05,28,06,46,9.20
2009,05,28,06,47,9.20
2009,05,28,06,48,9.20
2009,05,28,06,49,9.20
2009,05,28,06,50,9.20
2009,05,28,06,51,9.20
2009,05,28,06,52,9.20
2009,05,28,06,53,9.20
2009,05,28,06,54,9.20
2009,05,28,06,55,9.20
2009,05,28,06,56,9.20
2009,05,28,06,57,9.20
2009,05,28,06,58,9.30
2009,05,28,06,59,9.30
2009,05,28,07,00,9.30
2009,05,28,07,01,9.30
2009,05,28,07,02,9.30
2009,05,28,07,03,9.30
2009,05,28,07,04,9.30
2009,05,28,07,05,9.30
2009,05,28,07,06,9.40
2009,05,28,07,07,9.40
2009,05,28,07,08,9.40
2009,05,28,07,09,9.50
2009,05,28,07,10,9.50
2009,05,28,07,11,9.50
2009,05,28,07,12,9.60
2009,05,28,07,13,9.60
2009,05,28,07,14,9.60
2009,05,28,07,15,9.70
2009,05,28,07,16,9.70
2009,05,28,07,17,9.70
2009,05,28,07,18,9.70
2009,05,28,07,19,9.70
2009,05,28,07,20,9.80
2009,05,28,07,21,9.80
2009,05,28,07,22,9.80
2009,05,28,07,23,9.90
2009,05,28,07,24,9.90
2009,05,28,07,25,9.90
2009,05,28,07,26,9.90
2009,05,28,07,27,9.90
2009,05,28,07,28,9.90
2009,05,28,07,29,9.90
2009,05,28,07,30,9.90
2009,05,28,07,31,9.90
2009,05,28,07,32,9.90
2009,05,28,07,33,9.90
2009,05,28,07,34,9.90
2009,05,28,07,35,10.00
2009,05,28,07,36,10.10
2009,05,28,07,37,10.10
2009,05,28,07,38,10.10
2009,05,28,07,39,10.10
2009,05,28,07,40,10.10
2009,05,28,07,41,10.20
2009,05,28,07,42,10.20
2009,05,28,07,43,10.30
2009,05,28,07,44,10.30
2009,05,28,07,45,10.40
2009,05,28,07,46,10.40
2009,05,28,07,47,10.40
2009,05,28,07,48,10.40
2009,05,28,07,49,10.50
2009,05,28,07,50,10.60
2009,05,28,07,51,10.60
2009,05,28,07,52,10.70
2009,05,28,07,53,10.80
2009,05,28,07,54,10.80
2009,05,28,07,55,10.90
2009,05,28,07,56,10.90
2009,05,28,07,57,11.10
2009,05,28,07,58,11.10
2009,05,28,07,59,11.20
2009,05,28,08,00,11.20
2009,05,28,08,01,11.30
2009,05,28,08,02,11.30
2009,05,28,08,03,11.40
2009,05,28,08,04,11.40
2009,05,28,08,05,11.40
2009,05,28,08,06,11.50
2009,05,28,08,07,11.60
2009,05,28,08,08,11.60
2009,05,28,08,09,11.60
2009,05,28,08,10,11.70
2009,05,28,08,11,11.70
2009,05,28,08,12,11.80
2009,05,28,08,13,11.80
2009,05,28,08,14,11.90
2009,05,28,08,15,11.90
2009,05,28,08,16,12.00
2009,05,28,08,17,12.00
2009,05,28,08,18,12.10
2009,05,28,08,19,12.20
2009,05,28,08,20,12.30
2009,05,28,08,21,12.30
2009,05,28,08,22,12.50
2009,05,28,08,23,12.60
2009,05,28,08,24,12.60
2009,05,28,08,25,12.80
2009,05,28,08,26,12.80
2009,05,28,08,27,12.90
2009,05,28,08,28,13.00
2009,05,28,08,29,13.00
2009,05,28,08,30,13.00
2009,05,28,08,31,13.00
2009,05,28,08,32,13.00
2009,05,28,08,33,13.00
2009,05,28,08,34,13.00
2009,05,28,08,35,13.00
2009,05,28,08,36,13.10
2009,05,28,08,37,13.10
2009,05,28,08,38,13.10
2009,05,28,08,39,13.20
2009,05,28,08,40,13.20
2009,05,28,08,41,13.20
2009,05,28,08,42,13.20
2009,05,28,08,43,13.30
2009,05,28,08,44,13.30
2009,05,28,08,45,13.30
2009,05,28,08,46,13.30
2009,05,28,08,47,13.30
2009,05,28,08,48,13.30
2009,05,28,08,49,13.40
2009,05,28,08,50,13.40
2009,05,28,08,51,13.50
2009,05,28,08,52,13.50
2009,05,28,08,53,13.60
2009,05,28,08,54,13.70
2009,05,28,08,55,13.70
2009,05,28,08,56,13.80
2009,05,28,08,57,13.80
2009,05,28,08,58,13.80
2009,05,28,08,59,13.90
2009,05,28,09,00,13.90
2009,05,28,09,01,14.00
2009,05,28,09,02,14.00
2009,05,28,09,03,14.10
2009,05,28,09,04,14.10
2009,05,28,09,05,14.20
2009,05,28,09,06,14.20
2009,05,28,09,07,14.30
2009,05,28,09,08,14.40
2009,05,28,09,09,14.40
2009,05,28,09,10,14.40
2009,05,28,09,11,14.40
2009,05,28,09,12,14.50
2009,05,28,09,13,14.50
2009,05,28,09,14,14.60
2009,05,28,09,15,14.60
2009,05,28,09,16,14.60
2009,05,28,09,17,14.70
2009,05,28,09,18,14.70
2009,05,28,09,19,14.70
2009,05,28,09,20,14.60
2009,05,28,09,21,14.60
2009,05,28,09,22,14.50
2009,05,28,09,23,14.50
2009,05,28,09,24,14.50
2009,05,28,09,25,14.40
2009,05,28,09,26,14.40
2009,05,28,09,27,14.40
2009,05,28,09,28,14.40
2009,05,28,09,29,14.50
2009,05,28,09,30,14.50
2009,05,28,09,31,14.60
2009,05,28,09,32,14.60
2009,05,28,09,33,14.70
2009,05,28,09,34,14.70
2009,05,28,09,35,14.80
2009,05,28,09,36,14.80
2009,05,28,09,37,14.90
2009,05,28,09,38,15.00
2009,05,28,09,39,15.00
2009,05,28,09,40,15.00
2009,05,28,09,41,15.00
2009,05,28,09,42,15.00
2009,05,28,09,43,15.00
2009,05,28,09,44,15.00
2009,05,28,09,45,15.00
2009,05,28,09,46,15.10
2009,05,28,09,47,15.10
2009,05,28,09,48,15.20
2009,05,28,09,49,15.30
2009,05,28,09,50,15.30
2009,05,28,09,51,15.20
2009,05,28,09,52,15.20
2009,05,28,09,53,15.20
2009,05,28,09,54,15.20
2009,05,28,09,55,15.20
2009,05,28,09,56,15.20
2009,05,28,09,57,15.20
2009,05,28,09,58,15.30
2009,05,28,09,59,15.30
2009,05,28,10,00,15.50
2009,05,28,10,01,15.50
2009,05,28,10,02,15.60
2009,05,28,10,03,15.70
2009,05,28,10,04,15.80
2009,05,28,10,05,15.80
2009,05,28,10,06,15.80
2009,05,28,10,07,15.90
2009,05,28,10,08,15.90
2009,05,28,10,09,15.90
2009,05,28,10,10,15.90
2009,05,28,10,11,15.90
2009,05,28,10,12,16.00
2009,05,28,10,13,16.10
2009,05,28,10,14,16.10
2009,05,28,10,15,16.10
2009,05,28,10,16,16.10
2009,05,28,10,17,16.10
2009,05,28,10,18,16.10
2009,05,28,10,19,16.10
2009,05,28,10,20,16.10
2009,05,28,10,21,16.10
2009,05,28,10,22,16.10
2009,05,28,10,23,16.10
2009,05,28,10,24,16.10
2009,05,28,10,25,16.10
2009,05,28,10,26,16.10
2009,05,28,10,27,16.00
2009,05,28,10,28,15.90
2009,05,28,10,29,15.90
2009,05,28,10,30,15.90
2009,05,28,10,31,15.80
2009,05,28,10,32,15.80
2009,05,28,10,33,15.80
2009,05,28,10,34,15.90
2009,05,28,10,35,16.00
2009,05,28,10,36,16.10
2009,05,28,10,37,16.20
2009,05,28,10,38,16.40
2009,05,28,10,39,16.50
2009,05,28,10,40,16.60
2009,05,28,10,41,16.60
2009,05,28,10,42,16.70
2009,05,28,10,43,16.70
2009,05,28,10,44,16.80
2009,05,28,10,45,16.80
2009,05,28,10,46,16.80
2009,05,28,10,47,16.90
2009,05,28,10,48,16.90
2009,05,28,10,49,17.00
2009,05,28,10,50,17.10
2009,05,28,10,51,17.10
2009,05,28,10,52,17.10
2009,05,28,10,53,17.10
2009,05,28,10,54,17.10
2009,05,28,10,55,17.00
2009,05,28,10,56,16.90
2009,05,28,10,57,16.90
2009,05,28,10,58,16.90
2009,05,28,10,59,16.90
2009,05,28,11,00,17.00
2009,05,28,11,01,17.00
2009,05,28,11,02,17.00
2009,05,28,11,03,17.10
2009,05,28,11,04,17.10
2009,05,28,11,05,17.10
2009,05,28,11,06,17.10
2009,05,28,11,07,17.20
2009,05,28,11,08,17.20
2009,05,28,11,09,17.30
2009,05,28,11,10,17.40
2009,05,28,11,11,17.50
2009,05,28,11,12,17.60
2009,05,28,11,13,17.80
2009,05,28,11,14,17.80
2009,05,28,11,15,17.80
2009,05,28,11,16,17.80
2009,05,28,11,17,17.90
2009,05,28,11,18,17.90
2009,05,28,11,19,17.90
2009,05,28,11,20,17.90
2009,05,28,11,21,18.00
2009,05,28,11,22,18.10
2009,05,28,11,23,18.20
2009,05,28,11,24,18.20
2009,05,28,11,25,18.30
2009,05,28,11,26,18.40
2009,05,28,11,27,18.40
2009,05,28,11,28,18.50
2009,05,28,11,29,18.40
2009,05,28,11,30,18.30
2009,05,28,11,31,18.20
2009,05,28,11,32,18.30
2009,05,28,11,33,18.40
2009,05,28,11,34,18.40
2009,05,28,11,35,18.50
2009,05,28,11,36,18.50
2009,05,28,11,37,18.50
2009,05,28,11,38,18.40
2009,05,28,11,39,18.20
2009,05,28,11,40,18.20
2009,05,28,11,41,18.30
2009,05,28,11,42,18.30
2009,05,28,11,43,18.40
2009,05,28,11,44,18.50
2009,05,28,11,45,18.50
2009,05,28,11,46,18.60
2009,05,28,11,47,18.70
2009,05,28,11,48,18.80
2009,05,28,11,49,18.90
2009,05,28,11,50,18.90
2009,05,28,11,51,18.90
2009,05,28,11,52,18.90
2009,05,28,11,53,19.00
2009,05,28,11,54,19.10
2009,05,28,11,55,19.00
2009,05,28,11,56,18.90
2009,05,28,11,57,18.90
2009,05,28,11,58,19.00
2009,05,28,11,59,18.90
2009,05,28,12,00,18.90
2009,05,28,12,01,18.90
2009,05,28,12,02,18.90
2009,05,28,12,03,18.90
2009,05,28,12,04,18.90
2009,05,28,12,05,18.90
2009,05,28,12,06,18.90
2009,05,28,12,07,18.80
2009,05,28,12,08,18.70
2009,05,28,12,09,18.70
2009,05,28,12,10,18.70
2009,05,28,12,11,18.70
2009,05,28,12,12,18.70
2009,05,28,12,13,18.90
2009,05,28,12,14,19.00
2009,05,28,12,15,19.10
2009,05,28,12,16,19.20
2009,05,28,12,17,19.30
2009,05,28,12,18,19.40
2009,05,28,12,19,19.40
2009,05,28,12,20,19.50
2009,05,28,12,21,19.60
2009,05,28,12,22,19.60
2009,05,28,12,23,19.70
2009,05,28,12,24,19.60
2009,05,28,12,25,19.50
2009,05,28,12,26,19.40
2009,05,28,12,27,19.30
2009,05,28,12,28,19.20
2009,05,28,12,29,19.10
2009,05,28,12,30,19.10
2009,05,28,12,31,19.10
2009,05,28,12,32,19.10
2009,05,28,12,33,19.10
2009,05,28,12,34,19.30
2009,05,28,12,35,19.50
2009,05,28,12,36,19.60
2009,05,28,12,37,19.70
2009,05,28,12,38,19.80
2009,05,28,12,39,19.90
2009,05,28,12,40,19.90
2009,05,28,12,41,20.00
2009,05,28,12,42,20.10
2009,05,28,12,43,20.10
2009,05,28,12,44,20.00
2009,05,28,12,45,19.90
2009,05,28,12,46,19.90
2009,05,28,12,47,19.90
2009,05,28,12,48,19.90
2009,05,28,12,49,19.90
2009,05,28,12,50,19.90
2009,05,28,12,51,19.90
2009,05,28,12,52,19.90
2009,05,28,12,53,19.90
2009,05,28,12,54,19.90
2009,05,28,12,55,19.90
2009,05,28,12,56,20.00
2009,05,28,12,57,20.00
2009,05,28,12,58,19.90
2009,05,28,12,59,20.00
2009,05,28,13,00,20.10
2009,05,28,13,01,20.10
2009,05,28,13,02,20.10
2009,05,28,13,03,20.20
2009,05,28,13,04,20.30
2009,05,28,13,05,20.40
2009,05,28,13,06,20.60
2009,05,28,13,07,20.60
2009,05,28,13,08,20.70
2009,05,28,13,09,20.80
2009,05,28,13,10,20.90
2009,05,28,13,11,20.90
2009,05,28,13,12,20.90
2009,05,28,13,13,20.90
2009,05,28,13,14,20.80
2009,05,28,13,15,20.70
2009,05,28,13,16,20.60
2009,05,28,13,17,20.50
2009,05,28,13,18,20.50
2009,05,28,13,19,20.40
2009,05,28,13,20,20.50
2009,05,28,13,21,20.50
2009,05,28,13,22,20.60
2009,05,28,13,23,20.60
2009,05,28,13,24,20.50
2009,05,28,13,25,20.50
2009,05,28,13,26,20.50
2009,05,28,13,27,20.50
2009,05,28,13,28,20.50
2009,05,28,13,29,20.40
2009,05,28,13,30,20.40
2009,05,28,13,31,20.40
2009,05,28,13,32,20.30
2009,05,28,13,33,20.30
2009,05,28,13,34,20.40
2009,05,28,13,35,20.50
2009,05,28,13,36,20.60
2009,05,28,13,37,20.70
2009,05,28,13,38,20.50
2009,05,28,13,39,20.40
2009,05,28,13,40,20.40
2009,05,28,13,41,20.50
2009,05,28,13,42,20.50
2009,05,28,13,43,20.60
2009,05,28,13,44,20.70
2009,05,28,13,45,20.70
2009,05,28,13,46,20.80
2009,05,28,13,47,20.80
2009,05,28,13,48,20.80
2009,05,28,13,49,20.80
2009,05,28,13,50,20.80
2009,05,28,13,51,20.80
2009,05,28,13,52,20.80
2009,05,28,13,53,20.80
2009,05,28,13,54,20.80
2009,05,28,13,55,20.70
2009,05,28,13,56,20.60
2009,05,28,13,57,20.60
2009,05,28,13,58,20.50
2009,05,28,13,59,20.50
2009,05,28,14,00,20.50
2009,05,28,14,01,20.50
2009,05,28,14,02,20.60
2009,05,28,14,03,20.60
2009,05,28,14,04,20.70
2009,05,28,14,05,20.70
2009,05,28,14,06,20.70
2009,05,28,14,07,20.80
2009,05,28,14,08,20.80
2009,05,28,14,09,20.70
2009,05,28,14,10,20.70
2009,05,28,14,11,20.80
2009,05,28,14,12,20.70
2009,05,28,14,13,20.80
2009,05,28,14,14,20.80
2009,05,28,14,15,20.80
2009,05,28,14,16,20.70
2009,05,28,14,17,20.50
2009,05,28,14,18,20.50
2009,05,28,14,19,20.40
2009,05,28,14,20,20.50
2009,05,28,14,21,20.50
2009,05,28,14,22,20.50
2009,05,28,14,23,20.50
2009,05,28,14,24,20.60
2009,05,28,14,25,20.60
2009,05,28,14,26,20.60
2009,05,28,14,27,20.70
2009,05,28,14,28,20.70
2009,05,28,14,29,20.80
2009,05,28,14,30,20.90
2009,05,28,14,31,21.00
2009,05,28,14,32,21.10
2009,05,28,14,33,21.20
2009,05,28,14,34,21.30
2009,05,28,14,35,21.30
2009,05,28,14,36,21.40
2009,05,28,14,37,21.50
2009,05,28,14,38,21.60
2009,05,28,14,39,21.60
2009,05,28,14,40,21.60
2009,05,28,14,41,21.60
2009,05,28,14,42,21.40
2009,05,28,14,43,21.30
2009,05,28,14,44,21.40
2009,05,28,14,45,21.60
2009,05,28,14,46,21.60
2009,05,28,14,47,21.60
2009,05,28,14,48,21.60
2009,05,28,14,49,21.60
2009,05,28,14,50,21.70
2009,05,28,14,51,21.70
2009,05,28,14,52,21.70
2009,05,28,14,53,21.70
2009,05,28,14,54,21.80
2009,05,28,14,55,21.80
2009,05,28,14,56,21.90
2009,05,28,14,57,21.90
2009,05,28,14,58,21.90
2009,05,28,14,59,21.70
2009,05,28,15,00,21.50
2009,05,28,15,01,21.40
2009,05,28,15,02,21.50
2009,05,28,15,03,21.60
2009,05,28,15,04,21.60
2009,05,28,15,05,21.80
2009,05,28,15,06,21.90
2009,05,28,15,07,22.00
2009,05,28,15,08,22.00
2009,05,28,15,09,22.10
2009,05,28,15,10,22.10
2009,05,28,15,11,22.10
2009,05,28,15,12,22.10
2009,05,28,15,13,22.10
2009,05,28,15,14,22.10
2009,05,28,15,15,22.10
2009,05,28,15,16,22.10
2009,05,28,15,17,22.10
2009,05,28,15,18,22.10
2009,05,28,15,19,22.20
2009,05,28,15,20,22.20
2009,05,28,15,21,22.10
2009,05,28,15,22,22.10
2009,05,28,15,23,22.00
2009,05,28,15,24,22.00
2009,05,28,15,25,22.10
2009,05,28,15,26,22.10
2009,05,28,15,27,22.20
2009,05,28,15,28,22.20
2009,05,28,15,29,22.30
2009,05,28,15,30,22.40
2009,05,28,15,31,22.50
2009,05,28,15,32,22.50
2009,05,28,15,33,22.50
2009,05,28,15,34,22.50
2009,05,28,15,35,22.50
2009,05,28,15,36,22.50
2009,05,28,15,37,22.40
2009,05,28,15,38,22.40
2009,05,28,15,39,22.30
2009,05,28,15,40,22.40
2009,05,28,15,41,22.40
2009,05,28,15,42,22.50
2009,05,28,15,43,22.40
2009,05,28,15,44,22.40
2009,05,28,15,45,22.40
2009,05,28,15,46,22.30
2009,05,28,15,47,22.30
2009,05,28,15,48,22.30
2009,05,28,15,49,22.30
2009,05,28,15,50,22.30
2009,05,28,15,51,22.30
2009,05,28,15,52,22.30
2009,05,28,15,53,22.30
2009,05,28,15,54,22.40
2009,05,28,15,55,22.40
2009,05,28,15,56,22.50
2009,05,28,15,57,22.50
2009,05,28,15,58,22.50
2009,05,28,15,59,22.50
2009,05,28,16,00,22.50
2009,05,28,16,01,22.60
2009,05,28,16,02,22.60
2009,05,28,16,03,22.50
2009,05,28,16,04,22.50
2009,05,28,16,05,22.50
2009,05,28,16,06,22.50
2009,05,28,16,07,22.60
2009,05,28,16,08,22.60
2009,05,28,16,09,22.70
2009,05,28,16,10,22.60
2009,05,28,16,11,22.60
2009,05,28,16,12,22.50
2009,05,28,16,13,22.60
2009,05,28,16,14,22.60
2009,05,28,16,15,22.70
2009,05,28,16,16,22.60
2009,05,28,16,17,22.50
2009,05,28,16,18,22.50
2009,05,28,16,19,22.50
2009,05,28,16,20,22.40
2009,05,28,16,21,22.30
2009,05,28,16,22,22.30
2009,05,28,16,23,22.30
2009,05,28,16,24,22.30
2009,05,28,16,25,22.40
2009,05,28,16,26,22.50
2009,05,28,16,27,22.60
2009,05,28,16,28,22.70
2009,05,28,16,29,22.70
2009,05,28,16,30,22.80
2009,05,28,16,31,22.90
2009,05,28,16,32,22.90
2009,05,28,16,33,23.00
2009,05,28,16,34,23.10
2009,05,28,16,35,23.20
2009,05,28,16,36,23.20
2009,05,28,16,37,23.20
2009,05,28,16,38,23.20
2009,05,28,16,39,23.20
2009,05,28,16,40,23.20
2009,05,28,16,41,23.20
2009,05,28,16,42,23.30
2009,05,28,16,43,23.20
2009,05,28,16,44,23.00
2009,05,28,16,45,22.90
2009,05,28,16,46,22.70
2009,05,28,16,47,22.70
2009,05,28,16,48,22.70
2009,05,28,16,49,22.70
2009,05,28,16,50,22.80
2009,05,28,16,51,23.00
2009,05,28,16,52,23.10
2009,05,28,16,53,23.30
2009,05,28,16,54,23.40
2009,05,28,16,55,23.60
2009,05,28,16,56,23.60
2009,05,28,16,57,23.60
2009,05,28,16,58,23.60
2009,05,28,16,59,23.60
2009,05,28,17,00,23.60
2009,05,28,17,01,23.60
2009,05,28,17,02,23.70
2009,05,28,17,03,23.60
2009,05,28,17,04,23.60
2009,05,28,17,05,23.50
2009,05,28,17,06,23.40
2009,05,28,17,07,23.40
2009,05,28,17,08,23.30
2009,05,28,17,09,23.30
2009,05,28,17,10,23.20
2009,05,28,17,11,23.10
2009,05,28,17,12,23.10
2009,05,28,17,13,23.10
2009,05,28,17,14,23.20
2009,05,28,17,15,23.20
2009,05,28,17,16,23.30
2009,05,28,17,17,23.40
2009,05,28,17,18,23.40
2009,05,28,17,19,23.40
2009,05,28,17,20,23.40
2009,05,28,17,21,23.40
2009,05,28,17,22,23.40
2009,05,28,17,23,23.40
2009,05,28,17,24,23.40
2009,05,28,17,25,23.40
2009,05,28,17,26,23.50
2009,05,28,17,27,23.60
2009,05,28,17,28,23.60
2009,05,28,17,29,23.50
2009,05,28,17,30,23.40
2009,05,28,17,31,23.30
2009,05,28,17,32,23.20